Theta_e
318 318 318 317 318 318 317 317 317 318 318 317 317 318 318 317 317 318 318 318 318 318 318 319 321 321 319 315 311 321 340 338 335 325 331 329 326 325 319 321 325 324 327 327 332 336 335
317 317 317 317 317 316 316 316 316 316 316 317 317 317 318 318 317 317 317 317 317 318 319 321 322 320 320 309 317 321 327 331 328 321 326 329 325 327 321 319 318 322 325 326 329 335 332
317 317 317 317 317 316 316 315 316 316 316 316 317 317 317 317 317 317 316 316 319 320 322 323 323 321 318 311 319 320 325 326 326 323 324 329 327 323 320 315 320 319 315 320 323 332 331
317 317 317 317 317 317 316 316 315 315 315 316 316 317 317 317 316 315 315 315 320 321 321 322 322 325 312 316 320 316 322 325 329 330 329 330 327 321 320 318 313 312 315 311 319 326 329
317 317 316 316 317 317 316 316 316 315 315 316 316 316 316 316 315 315 314 315 323 323 322 323 325 323 308 316 312 315 319 322 326 330 328 326 323 317 318 310 308 309 305 309 314 324 324
317 317 317 316 316 317 316 316 315 315 315 315 315 315 315 315 314 313 313 314 322 322 324 325 322 313 310 308 311 314 317 322 323 324 319 319 317 312 313 309 301 304 304 308 310 317 319
317 317 316 316 316 317 316 316 315 315 315 315 315 315 314 314 313 312 313 318 317 314 313 306 307 306 307 312 314 313 318 321 321 320 309 314 309 305 309 312 310 309 308 306 312 317 317
316 316 316 316 316 316 316 315 315 315 315 315 315 314 314 313 312 311 314 311 309 311 305 308 307 308 309 311 306 311 321 314 313 311 314 310 304 310 311 311 309 308 307 307 310 315 315
316 316 316 316 316 316 316 315 315 315 315 315 314 314 313 312 311 311 314 311 316 314 305 306 307 306 307 309 306 305 312 315 311 308 310 307 309 311 310 308 306 307 306 306 307 311 315
317 317 317 317 316 316 315 315 315 315 314 314 314 313 312 310 308 316 313 316 317 314 301 301 303 305 307 307 303 308 311 310 309 307 307 308 311 309 308 306 308 304 309 308 307 306 304
317 317 317 316 316 315 315 315 314 314 314 314 313 312 310 308 316 314 314 318 315 312 291 301 302 310 307 304 305 305 310 309 304 306 308 306 307 306 306 307 309 305 310 308 307 305 306
317 317 316 316 315 315 314 314 314 314 313 313 312 311 310 315 318 316 318 317 312 298 290 297 302 301 301 303 303 305 305 309 309 304 307 306 313 311 308 311 310 311 307 308 308 305 298
317 315 315 315 315 315 314 314 314 313 312 312 310 308 310 316 313 317 317 312 299 294 301 297 298 300 300 300 300 301 301 302 300 297 298 302 304 309 312 307 310 308 305 298 297 297 296
316 315 315 316 315 314 314 314 314 313 311 310 308 306 311 316 318 317 314 305 294 299 298 300 298 299 297 300 301 299 300 299 303 301 299 297 296 303 309 307 306 306 305 300 294 296 298
316 315 315 315 315 314 314 314 313 312 311 310 307 317 318 317 317 316 308 299 300 299 300 298 299 296 298 299 297 298 299 299 301 302 297 297 297 306 307 309 309 306 303 308 303 306 301
315 314 314 315 314 314 314 313 312 312 311 309 313 314 313 318 318 313 305 299 300 302 301 301 296 299 296 298 296 298 298 301 299 301 303 300 295 304 305 308 309 307 311 302 302 296 296
315 314 314 314 315 314 313 313 312 311 310 309 313 309 314 318 316 309 301 302 301 303 302 299 298 297 298 297 298 297 297 300 301 300 302 300 297 298 302 302 301 303 303 305 306 303 298
314 314 314 314 313 313 314 314 312 310 308 311 313 306 315 317 307 309 302 300 296 301 303 301 301 299 298 297 296 296 296 299 302 302 298 301 297 294 297 302 305 304 304 305 301 300 303
314 313 314 312 313 314 314 313 312 310 309 312 310 310 315 315 302 301 301 300 300 299 299 299 298 299 301 297 293 296 297 302 301 300 298 301 296 290 293 298 301 300 303 304 305 306 303
314 313 313 313 314 314 314 313 311 310 310 311 310 306 309 308 307 302 299 297 296 300 300 299 298 299 297 296 298 294 295 298 301 300 301 300 297 294 291 294 298 296 299 303 303 300 301
313 313 313 313 314 314 314 313 312 310 310 311 310 304 305 299 300 301 301 298 295 294 300 300 296 295 294 292 294 294 297 298 300 301 300 300 292 295 296 297 297 296 297 299 300 304 300
313 313 312 313 313 313 313 313 313 311 309 312 307 306 306 302 300 299 296 292 292 295 296 294 294 295 295 292 294 293 296 296 296 299 298 300 293 295 293 297 296 293 295 296 297 299 300
312 312 312 313 313 313 313 314 314 312 310 311 311 310 307 299 298 298 295 294 293 296 298 298 296 296 294 295 298 299 301 301 300 297 296 295 294 292 289 293 294 290 294 295 297 299 299
312 312 312 313 313 313 313 314 314 313 311 314 311 309 306 298 298 297 295 296 295 296 294 298 298 295 299 303 302 302 300 300 299 299 300 295 294 293 289 291 283 295 300 299 298 300 301
312 311 312 312 313 313 313 314 314 313 312 314 313 310 305 300 301 299 297 297 299 299 297 297 298 301 304 300 294 293 293 293 295 297 298 299 295 290 286 287 291 294 297 298 296 298 306
311 311 311 312 312 313 313 313 313 313 312 314 314 314 309 304 301 301 298 298 297 297 298 297 304 306 303 297 294 288 288 290 289 292 299 297 297 292 289 285 282 293 300 302 302 293 306
311 311 311 312 312 313 313 313 313 313 313 314 314 316 311 304 307 305 301 299 301 296 295 298 299 299 302 292 289 288 288 290 286 286 289 291 291 289 289 287 290 298 301 301 291 294 304
311 311 311 311 312 313 313 313 313 314 314 315 315 319 311 308 308 308 307 302 303 302 294 300 298 298 295 290 290 290 288 289 287 290 290 290 288 288 290 286 284 302 300 293 301 301 301
311 310 311 311 312 313 313 313 314 314 314 313 314 319 317 310 310 314 312 311 309 307 304 302 299 298 299 291 291 290 288 290 288 286 293 287 292 290 291 291 301 302 301 304 306 299 299
Wind_Speed
15 16 16 17 17 17 19 20 20 20 21 23 23 23 22 24 24 23 22 20 19 16 15 10 7 6 7 10 1 6 7 10 16 19 21 21 20 19 19 16 17 20 19 7 12 6 9
14 14 15 16 16 17 19 19 20 20 21 22 23 24 23 22 23 24 22 21 20 14 11 9 6 7 9 11 4 3 4 6 17 23 22 21 16 18 15 17 15 11 19 15 11 10 11
14 14 15 15 16 17 18 19 20 20 21 22 23 23 23 23 24 23 22 21 18 10 7 6 8 9 12 8 3 4 5 5 14 22 20 20 17 16 10 14 15 16 11 16 18 14 9
14 15 16 17 17 17 18 19 20 19 20 21 23 24 24 24 25 23 21 19 14 5 1 4 7 12 3 1 3 8 3 8 11 16 16 15 16 13 20 10 6 18 19 18 20 20 16
16 16 16 17 17 17 18 19 20 20 20 22 23 24 25 26 26 23 19 17 11 5 5 6 10 10 9 6 4 3 6 8 12 11 7 11 11 15 19 15 13 15 16 22 19 23 18
15 16 17 17 17 17 17 18 19 20 20 22 24 24 25 26 26 25 20 11 5 8 10 10 9 10 6 4 3 1 4 6 14 13 11 12 11 18 18 16 16 18 19 20 22 17 19
15 15 15 16 18 18 19 20 20 21 21 21 24 25 25 26 26 25 16 6 8 10 19 7 7 4 4 3 4 2 6 11 11 16 17 19 16 20 22 21 21 19 16 21 18 19 16
16 16 17 17 17 17 18 20 20 21 22 22 24 25 26 26 26 27 12 6 7 7 8 6 2 5 0 3 5 7 8 13 12 16 19 15 22 20 19 18 21 22 15 15 18 14 16
15 16 16 17 17 17 18 19 19 20 21 21 23 24 25 25 25 12 4 6 7 6 9 11 5 3 1 7 2 5 7 12 11 19 21 22 11 20 21 20 20 20 20 16 15 12 11
14 15 15 15 16 17 18 19 20 20 20 21 22 24 24 25 7 3 2 7 7 4 8 14 10 5 7 4 8 0 2 8 10 15 19 21 21 11 22 23 21 20 17 19 18 17 14
14 14 14 15 16 17 18 19 20 21 21 22 22 24 24 10 13 3 8 9 5 7 8 7 9 5 3 8 4 11 0 8 14 13 11 15 18 24 20 20 21 18 16 20 19 17 17
14 14 15 16 16 16 17 18 20 21 22 23 24 24 22 6 10 6 9 8 7 9 4 8 3 5 10 5 6 1 5 6 8 11 14 17 16 17 23 18 16 18 18 19 16 16 18
13 14 15 16 17 17 17 18 19 20 22 23 24 24 16 8 6 9 9 7 9 9 3 9 3 4 4 3 6 5 7 12 11 12 17 19 20 19 12 17 23 17 21 14 15 17 18
12 14 14 15 16 17 18 19 19 21 22 24 25 23 10 4 7 8 8 10 8 4 5 6 2 2 8 0 12 6 11 13 11 16 15 14 17 22 19 22 20 26 22 15 26 16 19
12 13 15 14 16 17 18 19 19 21 22 23 29 8 3 6 5 6 9 11 5 12 7 6 7 11 12 10 6 4 15 15 3 2 14 12 23 1 5 18 23 21 27 25 27 23 22
11 12 15 16 16 17 18 18 19 21 23 21 8 5 6 9 3 8 9 9 6 8 8 9 12 6 11 5 9 11 11 4 5 5 9 8 14 12 9 8 16 23 17 24 19 26 25
12 13 15 16 16 17 18 18 19 21 24 24 8 7 7 9 6 8 8 9 4 6 8 8 10 13 10 11 13 12 13 2 5 4 9 15 9 17 11 12 20 18 21 16 18 24 19
12 13 14 15 17 16 17 18 19 18 23 14 6 4 8 10 8 3 6 5 1 6 2 6 6 8 11 14 15 17 16 13 8 8 10 10 11 15 18 16 22 26 20 28 16 20 21
12 13 14 16 15 16 16 15 16 16 13 10 5 4 7 10 4 5 4 3 3 6 5 6 7 9 14 14 12 12 16 15 1 10 5 11 10 14 16 14 16 14 17 18 20 23 22
13 14 15 15 15 16 14 14 15 15 13 9 6 2 6 7 6 5 1 5 3 6 6 9 9 7 9 11 11 7 14 9 8 14 5 3 14 17 14 8 12 17 24 12 20 18 22
14 15 15 16 15 15 14 14 15 16 16 8 4 7 6 6 8 9 11 6 6 10 9 6 5 4 5 7 11 12 15 15 13 7 8 11 17 19 19 16 15 16 9 13 20 20 17
14 15 15 15 15 14 14 13 14 17 21 4 6 1 4 7 5 11 9 7 8 7 4 1 4 7 5 6 11 15 13 8 14 13 15 13 15 17 18 21 14 17 16 17 18 20 20
13 14 15 14 14 13 13 12 13 16 14 4 4 2 6 5 6 2 4 4 4 8 4 3 4 8 9 5 10 14 15 13 12 12 11 12 10 13 17 18 19 21 22 21 21 21 21
13 13 14 13 13 11 11 11 10 12 15 5 6 4 1 7 4 4 2 4 7 4 6 9 6 8 9 13 17 18 21 22 16 16 15 8 11 10 10 13 17 13 16 18 15 17 24
12 13 13 13 12 11 10 8 8 7 12 4 4 3 3 4 5 5 4 8 6 6 8 4 4 5 10 13 11 11 12 14 20 21 19 17 12 6 8 14 15 19 10 6 6 12 19
12 12 11 12 11 10 9 6 5 3 8 6 4 3 3 3 11 5 4 2 5 7 7 2 6 6 8 5 5 8 4 6 1 6 17 21 18 10 12 15 20 17 13 3 6 15 18
12 11 10 11 11 10 6 3 2 1 5 5 5 4 5 4 9 9 8 6 4 1 5 5 8 4 7 2 4 3 4 3 4 5 6 5 8 17 15 14 12 16 11 4 10 4 21
12 10 9 10 10 10 6 2 1 2 6 7 4 2 6 5 8 5 5 3 3 3 4 9 3 3 2 3 4 5 3 3 4 4 8 6 7 11 15 20 20 8 4 10 7 7 17
11 9 8 10 10 9 5 3 1 2 6 6 1 1 4 6 7 3 4 4 3 2 3 4 4 1 3 1 2 3 3 3 5 2 7 5 6 6 6 6 8 7 11 16 10 8 17
Wind_Direction
10 7 4 2 358 356 354 353 350 346 342 340 338 335 336 337 336 334 331 324 316 305 297 285 264 233 233 216 131 40 238 186 194 202 218 201 205 205 219 228 228 225 260 218 229 157 292
5 2 359 357 354 352 351 350 348 346 342 338 336 333 334 336 335 333 330 324 318 306 288 271 219 200 244 246 42 4 354 171 188 195 213 206 210 210 233 244 232 229 236 253 233 225 176
358 355 353 351 350 348 347 347 345 344 340 336 334 332 334 334 334 333 328 325 321 310 290 235 190 226 252 38 321 320 226 182 174 198 208 207 219 216 235 257 237 259 247 236 241 218 198
352 352 350 348 347 344 342 344 343 341 339 335 334 333 333 333 332 332 327 323 317 324 33 160 201 249 23 111 292 229 177 179 192 217 227 206 225 256 236 258 247 232 242 248 209 221 222
348 347 346 344 343 340 339 339 339 339 340 336 334 333 334 333 332 329 321 313 285 266 220 220 232 227 125 147 212 128 246 183 186 200 244 226 241 235 225 240 232 207 229 223 235 201 221
341 341 339 339 339 336 335 335 335 336 339 336 333 333 333 331 329 323 318 293 270 246 218 224 267 249 165 95 50 180 166 213 183 175 200 209 213 230 222 212 225 209 216 237 218 200 210
336 335 335 336 337 335 334 334 336 335 337 336 331 331 331 330 327 318 313 217 208 194 229 332 14 318 92 113 239 123 173 188 189 194 205 198 215 215 214 224 239 263 226 233 234 214 205
332 332 333 333 333 332 332 331 333 332 334 334 331 328 329 328 324 315 291 16 27 337 291 162 220 223 203 302 194 111 213 213 205 203 208 199 226 228 230 225 233 253 257 253 241 213 212
328 328 329 329 331 330 329 328 329 328 330 331 327 325 325 323 318 293 39 25 304 284 254 156 196 240 185 259 300 87 272 223 222 214 211 231 220 218 236 229 237 229 241 240 253 225 249
324 324 326 330 329 328 329 328 328 325 327 327 325 322 321 322 290 357 125 350 313 232 267 138 197 142 209 252 203 140 304 283 230 243 231 229 245 243 217 232 229 236 219 257 254 250 221
324 324 329 331 331 331 331 329 326 324 325 325 324 322 319 317 317 323 341 321 318 229 267 144 122 60 198 243 58 147 279 242 257 227 255 232 229 241 226 234 230 242 241 221 246 251 249
324 330 334 334 333 331 329 327 324 323 325 324 322 321 323 221 228 21 321 314 240 232 217 124 114 166 210 187 177 37 226 221 323 287 263 264 266 237 241 229 237 236 243 251 235 234 238
332 331 333 334 333 328 328 327 325 324 325 322 321 318 310 297 347 336 310 262 236 254 163 126 173 232 266 192 189 253 235 213 231 220 229 231 237 251 245 252 221 215 224 222 223 218 235
333 330 337 335 333 328 329 329 327 324 326 324 319 316 189 281 304 303 277 248 258 34 59 63 291 233 267 233 250 222 253 248 204 271 279 280 222 213 212 231 234 212 225 227 218 216 226
337 340 336 337 333 331 330 328 329 326 329 327 311 227 279 5 334 283 254 232 340 19 13 348 300 244 253 178 260 215 257 273 316 233 273 257 240 207 276 212 239 230 216 244 258 238 237
342 341 340 338 333 333 330 330 332 330 327 328 301 252 59 339 288 246 243 274 55 19 352 298 282 306 292 222 192 226 253 121 268 250 284 289 277 263 196 234 270 263 259 220 236 249 254
345 340 341 337 334 338 333 333 334 334 327 321 257 238 35 331 246 239 273 53 28 20 351 320 318 306 284 280 289 267 287 97 243 233 270 281 252 257 205 201 232 222 247 257 249 231 247
341 343 343 338 340 335 329 335 333 337 331 300 273 256 15 298 242 337 15 16 64 5 306 309 288 284 284 297 294 290 273 270 42 290 255 244 271 248 242 220 226 245 247 232 240 227 235
342 344 341 342 336 331 334 337 333 336 348 313 316 34 27 301 320 74 123 104 22 351 345 342 319 354 328 319 315 279 266 271 286 254 259 278 228 250 250 259 252 245 238 257 257 248 231
343 342 342 340 333 330 339 340 332 332 333 305 279 209 118 40 35 25 216 49 57 82 56 350 304 291 307 272 256 248 283 315 297 256 25 289 266 271 263 336 333 233 237 246 266 240 239
342 344 344 338 337 339 342 345 338 332 325 302 329 62 350 26 51 40 8 337 34 24 23 348 131 25 7 292 317 275 267 272 247 238 244 245 254 261 267 278 283 294 278 233 256 264 271
341 344 343 341 340 344 349 349 341 332 324 272 343 24 125 80 39 52 20 41 352 334 303 43 322 330 321 276 274 302 298 222 256 305 232 229 262 275 267 274 246 255 246 251 255 256 267
342 344 340 343 340 345 351 349 351 334 326 39 47 78 300 114 56 84 51 343 306 305 285 309 308 311 289 321 326 289 285 282 256 242 239 287 263 262 256 251 246 240 239 240 245 248 252
341 346 343 339 337 349 354 358 4 338 335 37 34 342 350 83 62 44 16 351 337 324 275 316 274 267 276 312 299 277 267 260 239 259 253 222 261 254 267 255 254 258 244 241 263 276 238
341 346 341 336 336 347 353 2 12 346 327 339 60 334 355 64 77 119 336 3 351 333 242 263 307 353 326 294 292 262 239 229 239 242 226 235 214 262 246 254 249 255 251 20 4 276 293
339 345 342 332 338 340 348 0 16 341 311 303 59 360 310 344 48 32 351 343 357 337 307 107 16 354 339 346 285 281 333 350 258 254 245 233 214 203 257 244 249 250 85 65 292 262 269
337 341 341 328 332 331 348 4 14 275 281 280 77 326 287 343 64 16 33 13 352 312 278 317 327 68 32 323 283 309 347 348 281 285 272 225 254 223 230 252 258 278 92 323 253 302 337
334 339 342 328 328 327 337 18 343 213 256 277 85 350 323 341 74 16 99 357 335 121 287 359 279 93 304 313 326 10 314 339 291 275 300 260 219 222 236 246 245 4 279 251 341 325 325
331 338 339 324 326 324 333 352 69 191 243 275 184 19 322 274 26 25 47 43 354 86 279 304 2 321 64 354 353 305 313 303 304 345 312 286 355 298 279 260 5 311 298 306 302 292 287